Simultaneous Nadir Overpasses (SNOs) Predictions

Prediction of SNOs between NOAA-20 and METOP-C Satellite Orbit:

Table of predicted SNOs for the next 14.0 days since TLE Epoch: 6/20/2020
Index Date (NOAA-20) Time (NOAA-20) Lat,Lon (NOAA-20) SZA (NOAA-20 ) Date (METOP-C) Time (METOP-C) Lat,Lon (METOP-C) SZA (METOP-C ) Distance(km) Time Diff (sec)
1 07/03/2020 19:02:09 73.40,-115.10 50.78 07/03/2020 19:03:15 73.38,-112.28 50.59 89.79 66
2 07/03/2020 19:52:52 -73.34, 52.36 129.29 07/03/2020 19:53:59 -73.30, 54.86 129.48 79.96 67
3 07/03/2020 20:43:33 73.11,-139.82 50.46 07/03/2020 20:44:43 73.06,-138.33 50.31 48.72 70
4 07/03/2020 21:34:16 -73.05, 27.63 129.61 07/03/2020 21:35:27 -72.97, 28.82 129.76 39.41 71
5 07/03/2020 22:24:57 72.81,-164.57 50.14 07/03/2020 22:26:10 72.78,-164.25 50.08 10.94 73
6 07/03/2020 23:15:40 -72.75, 2.88 129.93 07/03/2020 23:16:53 -72.75, 3.01 129.95 4.22 73
7 07/04/2020 00:06:25 72.72, 170.26 50.04 07/04/2020 00:07:33 72.71, 170.26 50.02 0.77 68
8 07/04/2020 00:57:09 -72.71, -22.40 129.97 07/04/2020 00:58:15 -72.73, -22.38 129.96 2.74 66




NCC Satellite Simultaneous Nadir Overpasses (SNOs) Prediction Service
